Time,TemperatureF,DewpointF,PressureIn,WindDirection,WindDirectionDegrees,WindSpeedMPH,WindSpeedGustMPH,Humidity,HourlyPrecipIn,Conditions,Clouds,dailyrainin,SoftwareType,DateUTC
2013-08-20 00:01:00,75.7,64.0,29.71,North,357,4.5,5.1,67,0.00,,,-99.99,VWS V12.07,2013-08-19 22:01:00,
2013-08-20 00:11:00,75.7,63.6,29.71,North,357,0.0,4.5,66,0.00,,,-99.99,VWS V12.07,2013-08-19 22:11:00,
2013-08-20 00:21:00,75.7,63.6,29.71,North,356,3.1,5.1,66,0.00,,,-99.99,VWS V12.07,2013-08-19 22:21:00,
2013-08-20 00:31:00,76.1,64.4,29.71,North,356,4.7,4.7,67,0.00,,,-99.99,VWS V12.07,2013-08-19 22:31:00,
2013-08-20 00:41:00,76.1,64.4,29.71,North,357,3.6,5.6,67,0.00,,BKN200,-99.99,VWS V12.07,2013-08-19 22:41:00,
2013-08-20 00:51:00,76.1,64.4,29.71,North,356,3.6,4.5,67,0.00,,BKN200,-99.99,VWS V12.07,2013-08-19 22:51:00,
2013-08-20 01:01:00,75.9,64.6,29.71,North,357,4.0,4.7,68,0.00,,BKN200,-99.99,VWS V12.07,2013-08-19 23:01:00,
2013-08-20 01:11:00,75.9,64.6,29.71,North,357,0.0,4.5,68,0.00,,BKN200,-99.99,VWS V12.07,2013-08-19 23:11:00,
2013-08-20 01:20:00,75.9,64.2,29.71,North,357,0.0,3.1,67,0.00,,BKN200,-99.99,VWS V12.07,2013-08-19 23:20:00,
2013-08-20 01:31:00,75.9,63.8,29.71,North,356,4.5,4.5,66,0.00,,BKN200,-99.99,VWS V12.07,2013-08-19 23:31:00,
2013-08-20 01:41:00,75.9,63.8,29.68,North,357,3.6,4.5,66,0.00,,FEW200,-99.99,VWS V12.07,2013-08-19 23:41:00,
2013-08-20 01:51:00,76.1,64.4,29.68,North,356,0.0,4.0,67,0.00,,FEW200,-99.99,VWS V12.07,2013-08-19 23:51:00,
2013-08-20 02:00:00,76.1,64.4,29.68,North,357,2.7,5.1,67,0.00,,FEW200,-99.99,VWS V12.07,2013-08-20 00:00:00,
2013-08-20 02:11:00,76.1,64.4,29.71,North,357,0.0,4.7,67,0.00,,FEW200,-99.99,VWS V12.07,2013-08-20 00:11:00,
2013-08-20 02:21:00,75.9,64.2,29.68,North,356,4.0,6.0,67,0.00,,FEW200,-99.99,VWS V12.07,2013-08-20 00:21:00,
2013-08-20 02:31:00,75.9,64.2,29.68,North,356,3.6,5.1,67,0.00,,FEW200,-99.99,VWS V12.07,2013-08-20 00:31:00,
2013-08-20 02:41:00,75.7,64.0,29.68,North,356,2.7,4.5,67,0.00,,FEW200,-99.99,VWS V12.07,2013-08-20 00:41:00,
2013-08-20 02:51:00,75.7,64.0,29.68,North,357,0.0,4.7,67,0.00,,FEW200,-99.99,VWS V12.07,2013-08-20 00:51:00,
2013-08-20 03:01:00,75.6,64.3,29.68,North,357,2.7,4.7,68,0.00,,FEW200,-99.99,VWS V12.07,2013-08-20 01:01:00,
2013-08-20 03:11:00,75.6,64.3,29.68,North,356,3.6,4.5,68,0.00,,FEW200,-99.99,VWS V12.07,2013-08-20 01:11:00,
2013-08-20 03:21:00,75.4,64.1,29.68,North,357,0.0,4.0,68,0.00,,FEW200,-99.99,VWS V12.07,2013-08-20 01:21:00,
2013-08-20 03:31:00,75.6,64.3,29.68,North,357,0.0,3.6,68,0.00,,FEW200,-99.99,VWS V12.07,2013-08-20 01:31:00,
2013-08-20 03:41:00,75.2,64.3,29.68,North,356,3.6,4.0,69,0.00,,FEW200,-99.99,VWS V12.07,2013-08-20 01:41:00,
2013-08-20 03:50:00,75.2,64.3,29.68,North,356,0.0,3.1,69,0.00,,FEW200,-99.99,VWS V12.07,2013-08-20 01:50:00,
2013-08-20 04:01:00,75.2,63.9,29.68,North,356,3.6,3.6,68,0.00,,FEW200,-99.99,VWS V12.07,2013-08-20 02:01:00,
2013-08-20 04:11:00,75.0,63.8,29.68,North,357,0.0,3.1,68,0.00,,FEW200,-99.99,VWS V12.07,2013-08-20 02:11:00,
2013-08-20 04:21:00,75.0,63.8,29.68,North,356,0.0,3.6,68,0.00,,FEW200,-99.99,VWS V12.07,2013-08-20 02:21:00,
2013-08-20 04:31:00,74.7,63.8,29.68,North,356,0.0,3.1,69,0.00,,FEW200,-99.99,VWS V12.07,2013-08-20 02:31:00,
2013-08-20 04:41:00,74.5,63.7,29.68,North,357,2.7,2.7,69,0.00,,,-99.99,VWS V12.07,2013-08-20 02:41:00,
2013-08-20 04:51:00,74.8,63.2,29.68,North,357,0.0,2.7,67,0.00,,,-99.99,VWS V12.07,2013-08-20 02:51:00,
2013-08-20 05:01:00,75.0,63.3,29.68,North,356,0.0,0.0,67,0.00,,,-99.99,VWS V12.07,2013-08-20 03:01:00,
2013-08-20 05:11:00,75.0,63.3,29.68,North,356,0.0,2.7,67,0.00,,,-99.99,VWS V12.07,2013-08-20 03:11:00,
2013-08-20 05:21:00,75.2,63.1,29.68,North,356,0.0,2.7,66,0.00,,,-99.99,VWS V12.07,2013-08-20 03:21:00,
2013-08-20 05:31:00,75.0,62.9,29.68,North,356,0.0,0.0,66,0.00,,,-99.99,VWS V12.07,2013-08-20 03:31:00,
2013-08-20 05:41:00,75.0,62.9,29.65,North,357,0.0,0.0,66,0.00,,BKN,-99.99,VWS V12.07,2013-08-20 03:41:00,
2013-08-20 05:51:00,74.5,62.4,29.68,North,356,0.0,0.0,66,0.00,,BKN,-99.99,VWS V12.07,2013-08-20 03:51:00,
2013-08-20 06:01:00,74.5,62.4,29.68,North,356,0.0,0.0,66,0.00,,BKN,-99.99,VWS V12.07,2013-08-20 04:01:00,
2013-08-20 06:05:00,74.5,63.2,29.68,North,357,0.0,0.0,68,0.00,,BKN,-99.99,VWS V12.07,2013-08-20 04:05:00,
2013-08-20 06:11:00,74.7,63.0,29.68,North,357,0.0,2.7,67,0.00,,BKN,-99.99,VWS V12.07,2013-08-20 04:11:00,
2013-08-20 06:21:00,74.7,63.0,29.68,SE,143,0.0,0.0,67,0.00,,BKN,-99.99,VWS V12.07,2013-08-20 04:21:00,
2013-08-20 06:31:00,74.1,62.5,29.68,SSE,165,0.0,0.0,67,0.00,,BKN,-99.99,VWS V12.07,2013-08-20 04:31:00,
2013-08-20 06:41:00,73.8,62.5,29.68,WSW,251,0.0,0.0,68,0.00,,SCT200,-99.99,VWS V12.07,2013-08-20 04:41:00,
2013-08-20 06:50:00,73.6,62.4,29.68,WSW,250,0.0,0.0,68,0.00,,SCT200,-99.99,VWS V12.07,2013-08-20 04:50:00,
2013-08-20 07:01:00,73.6,62.4,29.68,SSE,151,0.0,0.0,68,0.00,,SCT200,-99.99,VWS V12.07,2013-08-20 05:01:00,
2013-08-20 07:11:00,73.4,62.2,29.68,South,185,0.0,0.0,68,0.00,,SCT200,-99.99,VWS V12.07,2013-08-20 05:11:00,
2013-08-20 07:21:00,73.2,61.6,29.68,South,190,0.0,0.0,67,0.00,,SCT200,-99.99,VWS V12.07,2013-08-20 05:21:00,
2013-08-20 07:31:00,73.2,61.6,29.68,South,190,0.0,0.0,67,0.00,,SCT200,-99.99,VWS V12.07,2013-08-20 05:31:00,
2013-08-20 07:41:00,73.0,61.5,29.68,SE,146,0.0,3.1,67,0.00,,BKN,-99.99,VWS V12.07,2013-08-20 05:41:00,
2013-08-20 07:50:00,72.9,61.7,29.68,WSW,244,0.0,0.0,68,0.00,,BKN,-99.99,VWS V12.07,2013-08-20 05:50:00,
2013-08-20 08:00:00,73.0,61.9,29.68,NW,309,0.0,3.6,68,0.00,,BKN,-99.99,VWS V12.07,2013-08-20 06:00:00,
2013-08-20 08:11:00,73.2,62.5,29.71,WNW,287,0.0,3.1,69,0.00,,BKN,-99.99,VWS V12.07,2013-08-20 06:11:00,
2013-08-20 08:21:00,73.6,62.4,29.68,WNW,282,3.6,4.5,68,0.00,,BKN,-99.99,VWS V12.07,2013-08-20 06:21:00,
2013-08-20 08:31:00,73.9,62.3,29.68,WNW,282,0.0,0.0,67,0.00,,BKN,-99.99,VWS V12.07,2013-08-20 06:31:00,
2013-08-20 08:41:00,75.2,61.8,29.68,SSE,153,3.6,4.5,63,0.00,,BKN,-99.99,VWS V12.07,2013-08-20 06:41:00,
2013-08-20 08:51:00,76.1,60.8,29.68,ESE,107,4.7,5.1,59,0.00,,BKN,-99.99,VWS V12.07,2013-08-20 06:51:00,
2013-08-20 09:01:00,76.8,58.9,29.68,East,100,3.1,5.1,54,0.00,,BKN,-99.99,VWS V12.07,2013-08-20 07:01:00,
2013-08-20 09:10:00,77.4,58.4,29.68,ESE,123,6.0,8.3,52,0.00,,BKN,-99.99,VWS V12.07,2013-08-20 07:10:00,
2013-08-20 09:21:00,77.4,57.8,29.68,SE,138,5.6,10.7,51,0.00,,BKN,-99.99,VWS V12.07,2013-08-20 07:21:00,
2013-08-20 09:31:00,77.9,57.2,29.68,SE,129,0.0,6.0,49,0.00,,BKN,-99.99,VWS V12.07,2013-08-20 07:31:00,
2013-08-20 09:41:00,78.6,56.1,29.68,SE,146,4.7,7.4,46,0.00,,BKN,-99.99,VWS V12.07,2013-08-20 07:41:00,
2013-08-20 09:51:00,78.3,57.5,29.68,SSE,155,6.9,10.3,49,0.00,,BKN,-99.99,VWS V12.07,2013-08-20 07:51:00,
2013-08-20 10:01:00,78.4,57.1,29.68,SE,129,7.4,9.8,48,0.00,,BKN,-99.99,VWS V12.07,2013-08-20 08:01:00,
2013-08-20 10:11:00,78.8,55.7,29.68,SE,140,6.5,9.4,45,0.00,,BKN,-99.99,VWS V12.07,2013-08-20 08:11:00,
2013-08-20 10:20:00,79.9,56.0,29.68,SE,142,10.7,10.7,44,0.00,,BKN,-99.99,VWS V12.07,2013-08-20 08:20:00,
2013-08-20 10:31:00,79.5,55.7,29.68,SW,214,3.1,8.3,44,0.00,,BKN,-99.99,VWS V12.07,2013-08-20 08:31:00,
2013-08-20 10:41:00,81.0,55.1,29.68,SSW,207,6.0,7.8,41,0.00,,BKN,-99.99,VWS V12.07,2013-08-20 08:41:00,
2013-08-20 10:51:00,81.3,54.0,29.68,South,173,3.1,6.9,39,0.00,,BKN,-99.99,VWS V12.07,2013-08-20 08:51:00,
2013-08-20 11:01:00,81.7,53.6,29.68,South,173,5.6,7.4,38,0.00,,BKN,-99.99,VWS V12.07,2013-08-20 09:01:00,
2013-08-20 11:11:00,82.0,50.9,29.68,SW,227,4.5,7.4,34,0.00,,BKN,-99.99,VWS V12.07,2013-08-20 09:11:00,
2013-08-20 11:21:00,82.2,50.3,29.68,SE,146,5.6,7.4,33,0.00,,BKN,-99.99,VWS V12.07,2013-08-20 09:21:00,
2013-08-20 11:31:00,82.8,48.2,29.68,SSE,147,7.4,7.4,30,0.00,,BKN,-99.99,VWS V12.07,2013-08-20 09:31:00,
2013-08-20 11:41:00,82.8,48.2,29.68,SSE,161,6.9,6.9,30,0.00,,BKN,-99.99,VWS V12.07,2013-08-20 09:41:00,
2013-08-20 11:51:00,84.6,45.9,29.68,East,84,5.6,6.0,26,0.00,,BKN,-99.99,VWS V12.07,2013-08-20 09:51:00,
2013-08-20 12:01:00,84.7,46.1,29.68,SW,220,2.7,8.9,26,0.00,,BKN,-99.99,VWS V12.07,2013-08-20 10:01:00,
2013-08-20 12:10:00,84.2,46.6,29.65,SSE,160,5.6,7.4,27,0.00,,BKN,-99.99,VWS V12.07,2013-08-20 10:10:00,
2013-08-20 12:21:00,83.1,48.5,29.68,South,176,7.8,9.4,30,0.00,,BKN,-99.99,VWS V12.07,2013-08-20 10:21:00,
2013-08-20 12:31:00,83.8,49.1,29.68,South,169,11.2,11.2,30,0.00,,BKN,-99.99,VWS V12.07,2013-08-20 10:31:00,
2013-08-20 12:41:00,83.1,49.4,29.68,South,174,8.3,11.2,31,0.00,,BKN,-99.99,VWS V12.07,2013-08-20 10:41:00,
2013-08-20 12:51:00,82.6,50.6,29.68,South,190,7.4,8.9,33,0.00,,BKN,-99.99,VWS V12.07,2013-08-20 10:51:00,
2013-08-20 13:02:00,83.3,52.0,29.68,SSW,208,9.8,9.8,34,0.00,,BKN,-99.99,VWS V12.07,2013-08-20 11:02:00,
2013-08-20 13:11:00,82.8,50.8,29.65,South,177,7.4,8.3,33,0.00,,BKN,-99.99,VWS V12.07,2013-08-20 11:11:00,
2013-08-20 13:21:00,82.9,50.9,29.65,SE,142,4.7,6.9,33,0.00,,BKN,-99.99,VWS V12.07,2013-08-20 11:21:00,
2013-08-20 13:31:00,82.2,52.6,29.65,West,281,6.9,8.9,36,0.00,,BKN,-99.99,VWS V12.07,2013-08-20 11:31:00,
2013-08-20 13:41:00,82.2,51.1,29.65,SW,223,0.0,6.9,34,0.00,,BKN,-99.99,VWS V12.07,2013-08-20 11:41:00,
2013-08-20 13:51:00,82.2,54.1,29.65,WSW,252,4.0,7.4,38,0.00,,BKN,-99.99,VWS V12.07,2013-08-20 11:51:00,
2013-08-20 14:01:00,81.9,51.5,29.65,SSE,152,3.6,4.5,35,0.00,,BKN,-99.99,VWS V12.07,2013-08-20 12:01:00,
2013-08-20 14:11:00,80.1,50.7,29.65,East,79,6.5,8.7,36,0.00,,BKN,-99.99,VWS V12.07,2013-08-20 12:11:00,
2013-08-20 14:21:00,80.4,51.0,29.62,NE,50,0.0,4.0,36,0.00,,BKN,-99.99,VWS V12.07,2013-08-20 12:21:00,
2013-08-20 14:30:00,81.7,52.2,29.62,SW,236,8.9,9.8,36,0.00,,BKN,-99.99,VWS V12.07,2013-08-20 12:30:00,
2013-08-20 14:41:00,81.7,49.8,29.65,SW,234,8.3,10.3,33,0.00,,BKN,-99.99,VWS V12.07,2013-08-20 12:41:00,
2013-08-20 14:51:00,82.2,48.6,29.65,WSW,238,9.4,11.6,31,0.00,,BKN,-99.99,VWS V12.07,2013-08-20 12:51:00,
2013-08-20 15:01:00,82.2,46.8,29.65,West,275,7.8,9.8,29,0.00,,BKN,-99.99,VWS V12.07,2013-08-20 13:01:00,
2013-08-20 15:11:00,82.0,47.6,29.65,NW,320,9.4,13.0,30,0.00,,BKN,-99.99,VWS V12.07,2013-08-20 13:11:00,
2013-08-20 15:21:00,81.9,47.4,29.65,NW,320,8.3,9.8,30,0.00,,BKN,-99.99,VWS V12.07,2013-08-20 13:21:00,
2013-08-20 15:31:00,82.6,47.1,29.65,NW,325,9.8,12.5,29,0.00,,BKN,-99.99,VWS V12.07,2013-08-20 13:31:00,
2013-08-20 15:40:00,83.3,44.9,29.65,WNW,292,10.3,15.9,26,0.00,,SCT070,-99.99,VWS V12.07,2013-08-20 13:40:00,
2013-08-20 15:51:00,82.4,46.1,29.65,NNW,330,10.7,20.6,28,0.00,,SCT070,-99.99,VWS V12.07,2013-08-20 13:51:00,
2013-08-20 16:11:00,82.6,43.2,29.62,NNW,344,10.3,15.4,25,0.00,,SCT070,-99.99,VWS V12.07,2013-08-20 14:11:00,
2013-08-20 16:21:00,82.0,40.6,29.65,NW,322,11.6,13.0,23,0.00,,SCT070,-99.99,VWS V12.07,2013-08-20 14:21:00,
2013-08-20 16:31:00,79.3,41.5,29.65,NW,324,8.3,18.3,26,0.00,,SCT070,-99.99,VWS V12.07,2013-08-20 14:31:00,
2013-08-20 16:41:00,79.2,40.3,29.65,North,9,9.8,13.0,25,0.00,,BKN,-99.99,VWS V12.07,2013-08-20 14:41:00,
2013-08-20 16:51:00,79.0,38.1,29.65,WNW,298,10.3,16.3,23,0.00,,BKN,-99.99,VWS V12.07,2013-08-20 14:51:00,
2013-08-20 17:01:00,78.8,40.0,29.65,NNW,344,8.3,11.6,25,0.00,,BKN,-99.99,VWS V12.07,2013-08-20 15:01:00,
2013-08-20 17:10:00,78.6,41.9,29.65,NNW,332,10.7,14.1,27,0.00,,BKN,-99.99,VWS V12.07,2013-08-20 15:10:00,
2013-08-20 17:21:00,78.8,43.0,29.65,NW,326,12.1,12.1,28,0.00,,BKN,-99.99,VWS V12.07,2013-08-20 15:21:00,
2013-08-20 17:31:00,80.2,42.3,29.65,NW,308,4.5,11.6,26,0.00,,BKN,-99.99,VWS V12.07,2013-08-20 15:31:00,
2013-08-20 17:41:00,80.6,41.6,29.65,SSE,165,4.0,5.1,25,0.00,,SCT070,-99.99,VWS V12.07,2013-08-20 15:41:00,
2013-08-20 17:51:00,81.0,39.7,29.65,North,357,0.0,4.0,23,0.00,,SCT070,-99.99,VWS V12.07,2013-08-20 15:51:00,
2013-08-20 18:01:00,79.3,42.5,29.65,SSE,152,6.5,8.9,27,0.00,,SCT070,-99.99,VWS V12.07,2013-08-20 16:01:00,
2013-08-20 18:11:00,79.2,43.3,29.65,SSE,160,4.5,6.5,28,0.00,,SCT070,-99.99,VWS V12.07,2013-08-20 16:11:00,
2013-08-20 18:21:00,79.5,43.6,29.65,WSW,246,0.0,6.0,28,0.00,,SCT070,-99.99,VWS V12.07,2013-08-20 16:21:00,
2013-08-20 18:30:00,78.8,43.0,29.65,SSW,202,5.1,8.7,28,0.00,,SCT070,-99.99,VWS V12.07,2013-08-20 16:30:00,
2013-08-20 18:41:00,78.8,42.0,29.65,SSW,204,0.0,7.8,27,0.00,,BKN,-99.99,VWS V12.07,2013-08-20 16:41:00,
2013-08-20 18:51:00,78.8,42.0,29.65,SE,143,4.5,6.0,27,0.00,,BKN,-99.99,VWS V12.07,2013-08-20 16:51:00,
2013-08-20 19:01:00,78.6,42.8,29.65,South,177,4.7,6.5,28,0.00,,BKN,-99.99,VWS V12.07,2013-08-20 17:01:00,
2013-08-20 19:11:00,78.6,42.8,29.68,ENE,78,4.7,6.9,28,0.00,,BKN,-99.99,VWS V12.07,2013-08-20 17:11:00,
2013-08-20 19:21:00,78.3,41.6,29.68,ENE,63,5.6,6.9,27,0.00,,BKN,-99.99,VWS V12.07,2013-08-20 17:21:00,
2013-08-20 19:31:00,78.3,41.6,29.68,ESE,104,4.0,5.1,27,0.00,,BKN,-99.99,VWS V12.07,2013-08-20 17:31:00,
2013-08-20 19:41:00,77.7,42.0,29.68,ESE,120,4.7,6.0,28,0.00,,BKN,-99.99,VWS V12.07,2013-08-20 17:41:00,
2013-08-20 19:50:00,76.8,43.9,29.68,East,79,5.1,5.1,31,0.00,,BKN,-99.99,VWS V12.07,2013-08-20 17:50:00,
2013-08-20 20:01:00,76.3,43.5,29.68,North,357,3.6,4.5,31,0.00,,BKN,-99.99,VWS V12.07,2013-08-20 18:01:00,
2013-08-20 20:11:00,75.7,43.8,29.68,North,357,4.5,6.5,32,0.00,,BKN,-99.99,VWS V12.07,2013-08-20 18:11:00,
2013-08-20 20:21:00,75.4,44.3,29.68,North,356,6.9,7.8,33,0.00,,BKN,-99.99,VWS V12.07,2013-08-20 18:21:00,
2013-08-20 20:31:00,75.7,44.6,29.68,North,356,6.5,11.2,33,0.00,,BKN,-99.99,VWS V12.07,2013-08-20 18:31:00,
2013-08-20 20:41:00,75.2,44.9,29.68,North,357,7.8,11.2,34,0.00,,SCT,-99.99,VWS V12.07,2013-08-20 18:41:00,
2013-08-20 20:51:00,74.7,45.2,29.68,North,357,5.6,11.6,35,0.00,,SCT,-99.99,VWS V12.07,2013-08-20 18:51:00,
2013-08-20 21:01:00,74.8,43.8,29.68,North,356,7.8,13.2,33,0.00,,SCT,-99.99,VWS V12.07,2013-08-20 19:01:00,
2013-08-20 21:11:00,74.7,42.9,29.68,North,357,14.5,14.5,32,0.00,,SCT,-99.99,VWS V12.07,2013-08-20 19:11:00,
2013-08-20 21:21:00,74.8,43.8,29.68,North,356,10.7,13.2,33,0.00,,SCT,-99.99,VWS V12.07,2013-08-20 19:21:00,
2013-08-20 21:31:00,75.0,43.2,29.68,North,357,12.5,15.0,32,0.00,,SCT,-99.99,VWS V12.07,2013-08-20 19:31:00,
2013-08-20 21:40:00,74.8,43.8,29.68,North,357,15.9,15.9,33,0.00,,SCT,-99.99,VWS V12.07,2013-08-20 19:40:00,
2013-08-20 21:51:00,74.8,43.8,29.68,North,357,9.4,17.7,33,0.00,,SCT,-99.99,VWS V12.07,2013-08-20 19:51:00,
2013-08-20 22:01:00,75.2,42.5,29.68,North,356,7.4,13.6,31,0.00,,SCT,-99.99,VWS V12.07,2013-08-20 20:01:00,
2013-08-20 22:11:00,75.4,42.7,29.65,North,357,10.3,15.0,31,0.00,,SCT,-99.99,VWS V12.07,2013-08-20 20:11:00,
2013-08-20 22:21:00,75.4,42.7,29.68,North,356,6.9,15.4,31,0.00,,SCT,-99.99,VWS V12.07,2013-08-20 20:21:00,
2013-08-20 22:31:00,75.0,42.4,29.68,North,356,6.9,6.9,31,0.00,,SCT,-99.99,VWS V12.07,2013-08-20 20:31:00,
2013-08-20 22:41:00,74.8,43.0,29.65,North,356,0.0,5.1,32,0.00,,FEW,-99.99,VWS V12.07,2013-08-20 20:41:00,
2013-08-20 22:50:00,73.0,44.5,29.68,North,356,4.5,8.7,36,0.00,,FEW,-99.99,VWS V12.07,2013-08-20 20:50:00,
2013-08-20 23:01:00,72.3,46.0,29.68,North,357,5.6,6.0,39,0.00,,FEW,-99.99,VWS V12.07,2013-08-20 21:01:00,
2013-08-20 23:11:00,72.0,46.3,29.68,North,356,9.4,9.8,40,0.00,,FEW,-99.99,VWS V12.07,2013-08-20 21:11:00,
2013-08-20 23:21:00,71.8,46.2,29.68,North,356,8.7,8.7,40,0.00,,FEW,-99.99,VWS V12.07,2013-08-20 21:21:00,
2013-08-20 23:31:00,72.1,45.2,29.68,North,356,3.1,4.5,38,0.00,,FEW,-99.99,VWS V12.07,2013-08-20 21:31:00,
2013-08-20 23:41:00,72.0,45.0,29.68,North,356,4.0,4.0,38,0.00,,FEW,-99.99,VWS V12.07,2013-08-20 21:41:00,
2013-08-20 23:51:00,71.4,45.2,29.68,North,357,0.0,4.5,39,0.00,,FEW,-99.99,VWS V12.07,2013-08-20 21:51:00,